Tracking 19146 objects as of 23-Apr-2018
HD Live streaming from Space Station
objects crossing your sky now

USA 144 DEB

Track USA 144 DEB now!
10-day predictions


NORAD ID: 25746
Int'l Code: 1999-028C
Perigee: 2,670.8 km
Apogee: 3,161.8 km
Inclination: 63.4 °
Period: 148.5 minutes
Semi major axis: 9287 km
RCS: Unknown
Launch date: May 22, 1999
Source: United States (US)
Launch site: AIR FORCE WESTERN TEST RANGE (AFWTR)

Note: This is SATELLITE DEBRIS
aabbcc
Your satellite tracking list
Your tracking list is empty




NASA's NSSDC Master Catalog

Two Line Element Set (TLE):
1 25746U 99028C   18110.93708412 0.00000000  00000-0  00000-0 0    00
2 25746  63.4404 109.6784 0264315 298.7164  61.2836  9.69992598    02
Source of the keplerian elements: McCants